Greybull, WY

3:36 AM MST on December 13, 2019 (GMT -0700)
South Big Horn County

Weather History for KGEY - October, 2019

Change the Weather History Date:

Tuesday, October 22, 2019

  Actual Average Record
Temperature  
Mean Temperature 42 °F 44 °F  
Max Temperature 53 °F 58 °F 80 °F (2003)
Min Temperature 31 °F 30 °F 21 °F (2002)
Degree Days  
Heating Degree Days 23 21  
Month to date heating degree days 487 379  
Since 1 July heating degree days 662 610  
Cooling Degree Days 0 0  
Month to date cooling degree days 0 0  
Year to date cooling degree days 733 669  
Moisture  
Dew Point 32 °F    
Average Humidity 69    
Maximum Humidity 89    
Minimum Humidity 44    
Precipitation  
Precipitation 0.08 in 0.01 in 0.25 in (2000)
Month to date precipitation 0.58 0.50  
Year to date precipitation 7.90 6.83  
Sea Level Pressure  
Sea Level Pressure 30.03 in    
Wind  
Wind Speed 7 mph ()    
Max Wind Speed 53 mph    
Max Gust Speed 68 mph    
Visibility 10.0 miles    
Events Rain    
T = Trace of Precipitation, MM = Missing Value Source: Averaged Metar Reports

Daily Weather History Graph

Daily Weather History Graph

Search for Another Location

Airport or City:

Astronomy

Oct. 22, 2019 Rise Set
Actual Time 7:36 AM MDT 6:16 PM MDT
Civil Twilight 7:06 AM MDT 6:46 PM MDT
Nautical Twilight 6:32 AM MDT 7:20 PM MDT
Astronomical Twilight 5:58 AM MDT 7:53 PM MDT
Moon 12:29 AM MDT (10/22) 3:46 PM MDT (10/22)
Length of Visible Light 11h 39m
Length of Day
10h 40m
Last Quarter, 36% of the Moon is Illuminated
Oct 22
Last Quarter
Oct 27
New
Nov 4
First Quarter
Nov 12
Full
Nov 19
Last Quarter

Hourly Weather History & Observations

Time (MDT) Temp. Windchill Dew Point Humidity Pressure Visibility Wind Dir Wind Speed Gust Speed Precip Events Conditions
12:53 AM 35.1 °F 31.0 °F 28.9 °F 78% 30.18 in 10.0 mi ESE 4.6 mph - N/A   Overcast
1:53 AM 35.1 °F 31.0 °F 28.9 °F 78% 30.16 in 10.0 mi SE 4.6 mph - N/A   Overcast
2:53 AM 34.0 °F 29.8 °F 28.0 °F 79% 30.17 in 10.0 mi SSE 4.6 mph - N/A   Clear
3:53 AM 33.1 °F - 28.0 °F 82% 30.16 in 10.0 mi Calm Calm - N/A   Mostly Cloudy
4:53 AM 33.1 °F 30.0 °F 28.9 °F 85% 30.16 in 10.0 mi NW 3.5 mph - N/A   Overcast
5:53 AM 33.1 °F - 30.0 °F 89% 30.15 in 10.0 mi Calm Calm - N/A   Overcast
6:53 AM 34.0 °F 31.0 °F 28.9 °F 82% 30.16 in 10.0 mi South 3.5 mph - N/A   Overcast
7:53 AM 34.0 °F - 30.0 °F 85% 30.15 in 10.0 mi Calm Calm - N/A   Overcast
8:53 AM 35.1 °F - 30.0 °F 82% 30.14 in 10.0 mi Calm Calm - N/A   Overcast
9:53 AM 37.9 °F 35.5 °F 30.9 °F 76% 30.13 in 10.0 mi ESE 3.5 mph - N/A   Overcast
10:53 AM 43.0 °F 41.3 °F 32.0 °F 65% 30.09 in 10.0 mi SSE 3.5 mph - N/A   Overcast
11:53 AM 46.9 °F - 28.0 °F 48% 30.05 in 10.0 mi SE 6.9 mph - N/A   Overcast
12:53 PM 48.0 °F - 30.0 °F 50% 30.01 in 10.0 mi SSW 6.9 mph - N/A   Overcast
1:53 PM 46.9 °F - 30.9 °F 54% 29.99 in 10.0 mi SW 3.5 mph - N/A   Overcast
2:53 PM 50.0 °F - 30.9 °F 48% 29.93 in 10.0 mi SE 8.1 mph - N/A   Clear
3:53 PM 52.0 °F - 30.9 °F 45% 29.92 in 10.0 mi SSE 5.8 mph - N/A   Clear
4:53 PM 53.1 °F - 32.0 °F 45% 29.89 in 10.0 mi South 6.9 mph - N/A   Clear
5:53 PM 50.0 °F - 32.0 °F 50% 29.87 in 10.0 mi South 8.1 mph - N/A   Clear
6:53 PM 46.9 °F - 32.0 °F 56% 29.87 in 10.0 mi ESE 9.2 mph - N/A   Clear
7:53 PM 45.0 °F 41.2 °F 32.0 °F 60% 29.87 in 10.0 mi East 6.9 mph - N/A   Clear
8:49 PM 48.2 °F - 35.6 °F 62% 29.88 in 10.0 mi NW 48.3 mph 67.9 mph 0.00 in Rain Light Rain
8:53 PM 46.0 °F 35.2 °F 36.0 °F 68% 29.94 in 10.0 mi NNW 41.4 mph 67.9 mph 0.00 in Rain Light Rain
9:49 PM 42.8 °F 32.5 °F 35.6 °F 76% 29.95 in 10.0 mi NW 28.8 mph 51.8 mph 0.06 in Rain Light Rain
9:53 PM 42.1 °F 31.1 °F 36.0 °F 79% 30.00 in 10.0 mi NW 31.1 mph 46.0 mph 0.07 in Rain Light Rain
10:13 PM 42.1 °F 30.1 °F 35.1 °F 76% 29.96 in 10.0 mi NW 38.0 mph 52.9 mph 0.01 in Rain Light Rain
10:53 PM 41.0 °F 33.9 °F 35.1 °F 79% 29.99 in 10.0 mi NW 12.7 mph - 0.01 in   Overcast
11:53 PM 41.0 °F 33.1 °F 34.0 °F 76% 29.98 in 10.0 mi WNW 15.0 mph 25.3 mph N/A   Clear